This is the latest recevied weather packets stored in our database for station/object KM5R. If no packets are shown the sender has not sent any weather packets the latest 10 day(s).
| Time | Temp. | Humidity | Pressure | Rain* | Wind** | Luminosity | Snow |
|---|---|---|---|---|---|---|---|
| 1777651734 | 11.67° C | 92% | 1017.2 hPa | 0 mm | - | 34 W/m² | - |
| 1777651430 | 11.67° C | 92% | 1017 hPa | 0 mm | - | 44 W/m² | - |
| 1777651128 | 12.22° C | 92% | 1016.9 hPa | 0 mm | - | 38 W/m² | - |
| 1777650825 | 12.22° C | 92% | 1017.1 hPa | 0 mm | - | 32 W/m² | - |
| 1777650521 | 12.22° C | 92% | 1017.2 hPa | 0 mm | - | 31 W/m² | - |
| 1777650219 | 11.67° C | 92% | 1017.1 hPa | 0 mm | - | 31 W/m² | - |
| 1777649916 | 11.67° C | 92% | 1017.2 hPa | 0 mm | - | 52 W/m² | - |
| 1777649613 | 12.22° C | 92% | 1017.2 hPa | 0 mm | - | 38 W/m² | - |
| 1777649309 | 12.22° C | 92% | 1017.3 hPa | 0 mm | - | 28 W/m² | - |
| 1777649006 | 12.22° C | 92% | 1017 hPa | 0 mm | - | 41 W/m² | - |
| 1777648704 | 12.22° C | 92% | 1017.1 hPa | 0 mm | - | 33 W/m² | - |
| 1777648400 | 12.22° C | 92% | 1016.8 hPa | 0 mm | - | 58 W/m² | - |
| 1777648096 | 11.67° C | 92% | 1016.6 hPa | 0 mm | - | 46 W/m² | - |
| 1777647793 | 11.67° C | 92% | 1016.6 hPa | 0 mm | - | 43 W/m² | - |
| 1777647489 | 11.67° C | 92% | 1017 hPa | 0 mm | - | 34 W/m² | - |
| 1777647186 | 11.67° C | 92% | 1016.9 hPa | 0 mm | - | 33 W/m² | - |
| 1777646883 | 11.67° C | 92% | 1016.5 hPa | 0 mm | - | 32 W/m² | - |
| 1777646579 | 11.67° C | 92% | 1016.7 hPa | 0 mm | - | 33 W/m² | - |
| 1777646275 | 11.67° C | 92% | 1016.3 hPa | 0 mm | - | 46 W/m² | - |
| 1777645973 | 11.67° C | 92% | 1016.4 hPa | 0 mm | - | 37 W/m² | - |
| 1777645669 | 11.67° C | 92% | 1016.4 hPa | 0 mm | - | 39 W/m² | - |
| 1777645365 | 11.67° C | 92% | 1016.5 hPa | 0 mm | - | 32 W/m² | - |
| 1777645061 | 11.67° C | 92% | 1016.7 hPa | 0 mm | - | 32 W/m² | - |
| 1777644758 | 11.67° C | 92% | 1016.8 hPa | 0 mm | - | 34 W/m² | - |
| 1777644455 | 12.22° C | 92% | 1016.7 hPa | 0 mm | - | 28 W/m² | - |
* Rain latest hour (hover to see other rain measurements)
** Current wind speed in m/s (hover to see current wind gust speed)